{"data":{"norad_id":67500,"intl_designator":"2026-012H","name":"STARLINK-36557","alt_names":[],"object_type":"PAYLOAD","status":"ACTIVE","operator":null,"country":"US","launch_date":"2026-01-18","launch_site_code":"AFETR","launch_vehicle":null,"mission":null,"orbit_class":"UNKNOWN","rcs_meters":null,"size_class":null,"mass_kg":null,"dimensions":null,"purposes":["comms"],"wikipedia_slug":null,"has_3d_model":false,"image_url":null,"decayed_at":null,"tle_current":{"epoch":"2026-09-19T10:39:02.524608Z","epoch_age_seconds":163561,"freshness":"FRESH","line1":"1 67500U 26012H   26262.44377922  .00010516  00000+0  39092-3 0  9993","line2":"2 67500  43.0017 300.2167 0002536 271.1135  88.9426 15.27596188 37391","mean_motion":15.27596188,"eccentricity":0.0002536,"inclination_deg":43.0017,"raan_deg":300.2167,"arg_perigee_deg":271.1135,"mean_anomaly_deg":88.9426,"bstar":0.00039092,"rev_number":3739,"period_min":94.265749765016,"perigee_km":481.26063927072,"apogee_km":484.7406082735,"semimajor_km":6861.1376237721,"source":"CELESTRAK","updated_at":"2026-09-20T09:00:43.557753Z"}}}